Location: DARK SKY Beskydy - Park tmavé oblohy, www.darkskybeskydy.cz
(49.4926°N, 18.5016°E)
Time: 00:57:47
(UTC+02:00)

TIGRISAT - Pass Details

Date: 04 August 2024
Orbit: 591 x 668 km, 97.7° (Epoch: 14 September)

Event Time Altitude Azimuth Distance (km) Brightness Sun altitude
Rises 03:01:53 0° 121° (ESE) 2,956 ? -17.4°
Reaches altitude 10° 03:04:42 10° 102° (ESE) 2,035 ? -17.2°
Maximum altitude 03:07:39 18° 60° (ENE) 1,571 ? -16.9°
Drops below altitude 10° 03:10:34 10° 18° (NNE) 2,012 ? -16.7°
Sets 03:13:19 0° 360° (N) 2,907 ? -16.4°
